Home > Time Zones > World Clock > Weather > Spain > Palma > Past weeks

Flag for Spain Weather past 2 weeks in Palma, Majorca, Spain

Now
72 °F

Scattered clouds.


Feels Like: 67 °F
Forecast: 67 / 75 °F
Wind: 6 mph from Northeast

Location: Palma De Mallorca / Son San Juan

Current Time: Sep 22, 2014 at 4:59:01 PM

Latest Report: Sep 22, 2014 at 4:30 PM


Visibility: N/A

Pressure: 29.92 "Hg

Humidity: 94%

Dew point: 70 °F

Location of PalmaLocation

Historic Weather in Palma — Graph

°F

Palma temperature yesterday

Maximum temperature yesterday: 84 °F (at 12:30 PM)
Minimum temperature yesterday: 72 °F (at 2:00 AM)
Average temperature yesterday: 78 °F

Past Weeks' High & Low Weather Summary

 TemperatureHumidityPressure
High93 °F (Sep 9, 2:00 PM)94% (Sep 8, 3:00 AM)30.07 "Hg (Sep 8, 3:00 AM)
Low66 °F (Sep 14, 6:30 AM)38% (Sep 16, 4:00 PM)29.74 "Hg (Sep 17, 5:30 AM)
Average78 °F75%29.91 "Hg
* Reported Sep 7 4:00 PM — Sep 22 4:00 PM, Palma, Weather by CustomWeather, © 2014

Note: Actual official high and low records may vary slightly from our data, if they occured in-between our weather recording intervals... More about our weather records

Advertising

Palma weather history for previous 24 hours

 ConditionsComfort  
Time TempWeatherWind HumidityBarometerVisibility
4:00 PM
Sep 22
72 °FLight rain. Partly sunny.5 mph88%29.92 "Hg4 mi
3:30 PM72 °FLight rain. Partly sunny.7 mph88%29.95 "Hg4 mi
3:00 PM73 °FLight rain. Passing clouds.8 mph83%29.92 "HgN/A
2:30 PM73 °FThunderstorms. Scattered clouds.15 mph83%29.92 "HgN/A
2:00 PM75 °FThundershowers. Passing clouds.17 mph74%29.92 "HgN/A
1:30 PM77 °FThundershowers. Passing clouds.17 mph69%29.92 "HgN/A
1:00 PM77 °FPassing clouds.20 mph69%29.92 "HgN/A
12:30 PM77 °FPassing clouds.18 mph69%29.92 "HgN/A
12:00 PM79 °FPassing clouds.20 mph65%29.92 "HgN/A
11:30 AM79 °FPassing clouds.18 mph65%29.95 "HgN/A
11:00 AM79 °FScattered clouds.16 mph65%29.95 "HgN/A
10:30 AM79 °FScattered clouds.12 mph70%29.95 "HgN/A
10:00 AM79 °FScattered clouds.6 mph79%29.95 "HgN/A
9:30 AM77 °FPassing clouds.5 mph83%29.95 "HgN/A
9:00 AM75 °FPassing clouds.7 mph83%29.92 "HgN/A
8:30 AM75 °FPassing clouds.5 mph83%29.92 "HgN/A
8:00 AM73 °FPassing clouds.2 mph83%29.92 "HgN/A
7:30 AM72 °FPassing clouds.3 mph83%29.95 "HgN/A
7:00 AM73 °FPassing clouds.2 mph78%29.92 "HgN/A
6:30 AM72 °FPassing clouds.5 mph83%29.92 "HgN/A
6:00 AM72 °FPassing clouds.6 mph78%29.92 "HgN/A
5:30 AM72 °FPassing clouds.2 mph78%29.92 "HgN/A
5:00 AM72 °FPassing clouds.2 mph78%29.92 "HgN/A
4:30 AM72 °FPassing clouds.3 mph78%29.95 "HgN/A
4:00 AM73 °FPassing clouds.3 mph74%29.95 "HgN/A
3:30 AM72 °FPassing clouds.3 mph78%29.98 "HgN/A
3:00 AM70 °FPassing clouds.1 mph83%29.98 "HgN/A
2:30 AM72 °FPassing clouds.1 mph78%29.98 "HgN/A
2:00 AM72 °FPassing clouds.1 mph83%30.01 "HgN/A
1:30 AM72 °FPassing clouds.2 mph78%30.01 "HgN/A
1:00 AM72 °FPassing clouds.1 mph78%30.01 "HgN/A
12:30 AM73 °FPassing clouds.1 mph78%30.01 "HgN/A
12:00 AM72 °FClear.2 mph78%30.01 "Hg10 mi
11:30 PM
Sep 21
73 °FClear.No wind74%30.01 "Hg10 mi
11:00 PM75 °FClear.No wind74%30.01 "Hg10 mi
10:30 PM75 °FClear.No wind74%30.01 "Hg10 mi
10:00 PM79 °FClear.2 mph70%30.01 "Hg10 mi
9:30 PM77 °FClear.No wind69%30.01 "Hg10 mi
9:00 PM77 °FClear.No wind74%30.01 "Hg10 mi
8:30 PM81 °FSunny.1 mph62%30.01 "Hg10 mi
8:00 PM81 °FSunny.3 mph66%30.01 "Hg10 mi
7:30 PM81 °FSunny.3 mph58%29.98 "Hg10 mi
7:00 PM82 °FPassing clouds.5 mph58%30.01 "HgN/A
6:30 PM84 °FPassing clouds.No wind51%30.01 "HgN/A
6:00 PM82 °FPassing clouds.1 mph58%30.01 "HgN/A
5:30 PM82 °FPassing clouds.2 mph58%30.01 "HgN/A
5:00 PM84 °FPassing clouds.6 mph58%30.01 "HgN/A
4:30 PM82 °FPassing clouds.8 mph66%30.01 "HgN/A
4:00 PM82 °FPassing clouds.13 mph66%30.04 "HgN/A
Weather by CustomWeather, © 2014

See weather overviewHow to use our weather pages